www.pogodaiklimat.ru

Погода и климат >> Архив погоды >> Индонезия >> Сабу


ПОГОДА в Сабу

  • Прогноз погоды в Сабу
  • Монитор погоды в Сабу

АРХИВ ПОГОДЫ в Сабу

Время (UTC), дата Ветер
(напр.,м/с)
 
Видим.   Явления Облачность Т
(С)
Тd
(С)
f
(%)
Тe
(С)
Тes
(С)
Комфортность P
(гПа)
Po
(гПа)
Тmin
(С)
Tmax
(С)
R
(мм)
R24
(мм)
S
(см)
06 12.07 ЮВ 4 14 км 3/3 450 м
[Cu hum Ci fib]
+29.3 +20.6 59 +36 +42 очень
душно
1014.0 1011.7
09 12.07 ЮВ 4 14 км 3/1 450 м
[Cu hum Ci fib]
+27.4 +19.4 62 +33 +33 очень
душно
1014.1 1011.9
12 12.07 ЮВ 2 6000 м 1/1 450 м
[Cu hum Ci fib]
+25.4 +19.6 70 +31 +31 очень
душно
1016.1 1013.9 +30.7
15 12.07 ЮВ 3 6000 м 1/1 450 м
[Cu hum Ci fib]
+24.9 +19.0 70 +30 +30 душно 1016.8 1014.6
18 12.07 В 3 6000 м 1/1 450 м
[Cu hum Ci fib]
+24.0 +19.0 74 +29 +29 душно 1015.9 1013.7
00 13.07 ЮВ 4 12 км 3/3 450 м
[Cu hum Ci fib]
+25.8 +20.5 73 +32 +34 очень
душно
1017.0 1014.7 +21.3
03 13.07 ЮВ 3 14 км 1/1 450 м
[Cu hum Ci fib]
+29.5 +18.9 53 +35 +46 очень
душно
1016.0 1013.8
06 13.07 ЮВ 4 14 км 1/1 450 м
[Cu hum Ac trans Ci fib]
+29.9 +21.3 60 +38 +44 очень
душно
1013.5 1011.3
09 13.07 ЮВ 5 14 км 1/1 450 м
[Cu hum Ci fib]
+27.0 +21.3 71 +34 +34 очень
душно
1013.2 1011.5
12 13.07 ЮВ 4 6000 м 1/1 450 м
[Cu hum Ci fib]
+25.6 +21.0 76 +32 +32 очень
душно
1015.4 1013.2 +31.0
15 13.07 ЮВ 3 6000 м 1/1 450 м
[Cu hum Ci fib]
+25.3 +21.2 78 +32 +32 очень
душно
1015.4 1013.2
18 13.07 В 3 6000 м 1/1 450 м
[Cu hum Ci fib]
+24.7 +21.1 80 +31 +31 очень
душно
1015.3 1013.1
00 14.07 В 4 14 км 1/1 450 м
[Cu hum Ac trans Ci fib]
+26.7 +20.7 70 +33 +36 очень
душно
1015.7 1013.5 +21.7
03 14.07 В 6 14 км 1/1 450 м
[Cu hum Ci fib]
+29.4 +19.1 54 +35 +40 очень
душно
1014.9 1012.7
06 14.07 Ю 5 14 км 1/1 450 м
[Cu hum Ci fib]
+30.0 +19.0 52 +35 +41 очень
душно
1012.6 1010.4
09 14.07 Ю 4 14 км 1/1 450 м
[Cu hum Ci fib]
+27.0 +19.8 65 +33 +33 очень
душно
1013.2 1011.0
12 14.07 ЮВ 4 6000 м 1/1 450 м
[Cu hum Ci fib]
+25.6 +19.5 69 +31 +31 очень
душно
1014.9 1012.7 +30.8
15 14.07 В 6 6000 м 1/1 450 м
[Cu hum Ci fib]
+25.4 +19.9 72 +31 +31 очень
душно
1015.1 1012.9
18 14.07 В 4 6000 м 1/1 450 м
[Cu hum Ci fib]
+25.3 +20.6 75 +31 +31 очень
душно
1014.7 1012.5
00 15.07 В 5 14 км 4/1 450 м
[Cu hum Ac trans Ci fib]
+26.6 +18.7 62 +32 +33 очень
душно
1015.3 1013.1 +24.8
03 15.07 В 6 14 км 1/1 450 м
[Cu hum Ci fib]
+28.0 +18.3 56 +33 +38 очень
душно
1014.9 1012.7
06 15.07 ЮВ 7 14 км 4/4 480 м
[Cu hum Ci fib]
+28.5 +19.4 58 +34 +36 очень
душно
1012.2 1010.0
09 15.07 ЮВ 4 12 км 3/1 480 м
[Cu hum Ci fib]
+26.6 +19.7 66 +32 +33 очень
душно
1012.5 1010.3
12 15.07 Ю 3 6000 м 3/1 480 м
[Cu hum Ci fib]
+25.1 +20.2 74 +31 +31 очень
душно
1014.4 1012.2 +29.4
15 15.07 В 3 6000 м 3/1 480 м
[Cu hum Ci fib]
+24.8 +20.2 76 +31 +31 очень
душно
1015.2 1013.0
18 15.07 В 2 6000 м 1/1 480 м
[Cu hum Ci fib]
+24.0 +20.2 79 +30 +30 очень
душно
1014.6 1012.4
00 16.07 В 3 12 км 5/5 420 м
[Cu hum Ci fib]
+26.3 +20.7 71 +33 +34 очень
душно
1015.8 1013.6 +23.8
03 16.07 Ю 4 12 км 4/4 450 м
[Cu hum Ci fib]
+28.3 +19.8 60 +34 +40 очень
душно
1014.8 1012.6
06 16.07 Ю 5 14 км 5/5 450 м
[Cu hum Ci fib]
+28.2 +20.5 63 +35 +38 очень
душно
1012.8 1010.6
09 16.07 ЮВ 7 12 км 3/3 450 м
[Cu hum Ci fib]
+26.8 +20.5 68 +33 +33 очень
душно
1012.8 1010.6
12 16.07 ЮВ 2 6000 м 3/1 450 м
[Cu hum Ac trans Ci fib]
+25.0 +20.1 74 +31 +31 очень
душно
1014.3 1012.1 +28.8
15 16.07 ЮВ 3 6000 м 1/1 450 м
[Cu hum Ac trans Ci fib]
+24.8 +20.2 76 +31 +31 очень
душно
1014.4 1012.2
18 16.07 В 4 6000 м 8/4 450 м
[Cu med, cong Ac As Ci fib]
+25.2 +20.5 75 +31 +31 очень
душно
1013.9 1011.7
00 17.07 ЮВ 4 14 км 3/1 450 м
[Cu hum Ci fib]
+26.6 +21.2 72 +34 +36 очень
душно
1014.2 1012.0 +24.4
03 17.07 ЮВ 4 14 км 1/1 450 м
[Cu hum Ci fib]
+28.4 +20.7 63 +35 +45 очень
душно
1013.1 1010.9
06 17.07 ЮВ 5 14 км 1/1 450 м
[Cu hum Ci fib]
+28.8 +20.9 62 +36 +41 очень
душно
1010.9 1008.7
09 17.07 ЮВ 4 14 км 1/1 450 м
[Cu hum Ci fib]
+27.3 +20.1 65 +34 +34 очень
душно
1010.7 1008.5
12 17.07 ЮВ 2 6000 м 1/1 450 м
[Cu hum Ci fib]
+25.5 +20.6 74 +32 +32 очень
душно
1012.4 1010.2 +29.6
15 17.07 В 1 6000 м 1/1 450 м
[Cu hum Ci fib]
+25.0 +20.9 78 +31 +31 очень
душно
1013.0 1010.7
18 17.07 В 3 6000 м 1/1 450 м
[Cu hum Ci fib]
+24.8 +20.5 77 +31 +31 очень
душно
1012.3 1010.1
00 18.07 В 4 14 км 1/1 450 м
[Cu hum Ci fib]
+26.4 +21.0 72 +33 +35 очень
душно
1013.7 1011.4 +24.4
06 18.07 Ю 5 14 км 1/1 450 м
[Cu hum Ci fib]
+29.6 +22.4 65 +39 +45 очень
душно
1010.7 1008.5
09 18.07 ЮВ 4 14 км 1/1 450 м
[Cu hum Ci fib]
+27.5 +21.7 71 +35 +36 очень
душно
1011.0 1008.8
12 18.07 В 2 6000 м 1/1 450 м
[Cu hum Ci fib]
+25.5 +22.0 81 +33 +33 очень
душно
1012.4 1010.2 +30.5
15 18.07 ЮВ 4 6000 м 1/1 450 м
[Cu hum Ci fib]
+25.0 +21.6 81 +32 +32 очень
душно
1012.7 1010.5
18 18.07 В 3 6000 м 1/1 450 м
[Cu hum Ci fib]
+24.6 +22.2 87 +32 +32 очень
душно
1011.6 1009.4
00 19.07 В 5 14 км 1/1 450 м
[Cu hum Ci fib]
+26.6 +22.4 78 +35 +37 очень
душно
1013.5 1011.3 +24.5
03 19.07 В 3 10 км 8/8 450 м
[Cu med, cong Ci fib]
+27.8 +23.1 76 +37 +40 очень
душно
1013.3 1011.1

 

Местоположение метеостанции Сабу (Индонезия): широта -10.50 долгота 121.83 высота над уровнем моря 26 м.

В архиве по умолчанию представлена погода в Сабу за последнюю неделю. Архивные данные за месяц целиком и за предыдущие месяцы, начиная с января 2011 года, Вы можете получить, выбрав интересующий диапазон дат из раскрывающегося списка и нажав кнопку "Ввод!".


*Определитесь, кто Вы:
робот инопланетянин человек

Внимание! Время в таблицах - всемирное. Для получения местного времени необходимо прибавить поправку, которая равна 8 ч.

Смотрите также архив погоды в соседних городах и на ближайших метеорологических станциях:

Погода на Роти (Индонезия) (138 км)
Погода в Аэропорту Умбу Механг Кунда (Индонезия) (188 км)
Погода в Купанге (Индонезия) (204 км)
Погода в Маумере (Индонезия) (213 км)
Погода в Рутенге (Индонезия) (257 км)
Погода в Ларантуке (Индонезия) (278 км)
Погода на Алоре (Индонезия) (393 км)
Погода в Биме (Индонезия) (406 км)
Погода на Острове Брауз (Западная Австралия, Австралия) (443 км)
Погода в Сумбава-Бесаре (Индонезия) (534 км)

Пояснения к столбцам:

Ветер - указаны скорость ветра в м/с - средняя за 10 мин, порывы в срок и между сроками (в фигурных скобках) и направление, откуда дует ветер: С - северный, СВ - северо-восточный, В - восточный, ЮВ - юго-восточный, Ю - южный, ЮЗ - юго-западный, З - западный, СЗ - северо-западный.
Видимость - горизонтальная дальность видимости в метрах или километрах. При видимости от 1 до 10 км при отсутствии осадков обычно наблюдается дымка, при ухудшении видимости до 1 км и менее - туман. В сухую погоду видимость может ухудшаться дымом, пылью или мглою.
Явления - указаны атмосферные явления, наблюдавшиеся в срок или в последний час перед сроком; фигурными скобками обозначены явления, наблюдавшиеся между сроками (за 1-3 часа до срока); квадратными скобками обозначены град или гололедные отложения с указанием их диаметра в мм.
Облачность - указаны через наклонную черту общая и нижняя облачность в баллах и высота нижней границы облаков в метрах; квадратными скобками обозначены формы облаков: Ci - перистые, Cs - перисто-слоистые, Cc - перисто-кучевые, Ac - высококучевые, As - высокослоистые, Sc - слоисто-кучевые, Ns - слоисто-дождевые, Cu - кучевые, Cb - кучево-дождевые. Подробнее классификацию облаков см. в Атласе облаков (PDF).
T - Температура воздуха - температура, измеренная на высоте 2 м над землей.
Td - Температура точки росы - температура, при понижении до которой содержащийся в воздухе водяной пар достигнет насыщения.
f - Относительная влажность воздуха - влажноcть воздуха, измеренная на высоте 2 м над землей.
Te - Эффективная температура - температура, которую ощущает одетый по сезону человек в тени. Характеристика душности погоды. При расчете учитывается влияние влажности воздуха и скорости ветра на теплоощущения человека.
Tes - Эффективная температура на солнце - температура, которую ощущает человек, с поправкой на солнечный нагрев. Характеристика знойности погоды. Зависит от высоты солнца над горизонтом, облачности и скорости ветра. Ночью, в пасмурную погоду, а также при ветре 12 м/с и более поправка равна нулю.
P - Атмосферное давление - приведенное к уровню моря атмосферное давление.
Po - Атмосферное давление - измеренное на уровне метеостанции атмосферное давление.
Tmin - Минимальная температура - минимум температуры воздуха на высоте 2 м над землей.
Tmax - Максимальная температура - максимум температуры воздуха на высоте 2 м над землей.
R - Количество осадков - Количество выпавших осадков за период времени, мм. При наведении курсора мыши на число - период времени, за который выпало указанное количество осадков.
R24 - Количество осадков - Количество выпавших осадков за 24 часа, мм.
S - Снежный покров - Высота снежного покрова, см. При наведении курсора мыши на число - состояние снежного покрова и степень покрытия местности в баллах.